1502110801.17,62102,21.06,74380.0,16.37,8.27,7.59,0,*4F
1502110802.4,62103,21.06,74378.3,16.37,8.23,7.47,0,*45
1502110803.67,62104,21.06,74378.8,16.41,8.37,7.69,0,*4A
1502110804.93,62105,21.06,74374.0,16.41,8.37,7.73,0,*40
1502110806.17,62106,21.06,74376.3,16.41,8.71,8.05,0,*4F
1502110807.41,62107,21.06,74376.8,16.43,8.97,8.41,0,*44
1502110808.62,62108,21.06,74380.0,16.43,9.33,8.71,0,*47
1502110809.83,62109,21.06,74378.8,16.45,8.93,8.23,0,*4C
1502110811.02,62110,21.06,74376.3,16.45,8.05,7.29,0,*4E
1502110812.25,62111,21.06,74378.3,16.47,7.97,7.23,0,*43
1502110813.43,62112,21.06,74376.5,16.49,7.55,6.79,0,*4E
1502110814.66,62113,21.06,74376.5,16.47,7.77,7.01,0,*4F
1502110815.9,62114,21.06,74374.8,16.47,8.09,7.23,0,*4E
1502110817.13,62115,21.06,74378.8,16.49,8.89,8.13,0,*45
1502110818.35,62116,21.06,74380.8,16.49,9.03,8.29,0,*4C
1502110819.59,62117,21.06,74374.8,16.49,8.71,7.95,0,*41
1502110820.83,62118,21.06,74376.0,16.51,8.37,7.59,0,*45
1502110822.06,62119,21.06,74376.8,16.53,8.33,7.61,0,*49
1502110823.28,62120,21.06,74372.8,16.55,8.87,8.15,0,*46
1502110824.51,62121,21.06,74376.8,16.55,9.21,8.55,0,*4E
1502110825.75,62122,21.06,74376.8,16.59,9.15,8.45,0,*47
1502110826.98,62123,21.06,74378.0,16.61,9.11,8.41,0,*4D
1502110828.17,62124,21.06,74376.5,16.65,8.83,8.05,0,*44
1502110829.36,62125,21.06,74378.0,16.65,8.87,8.05,0,*41
1502110830.57,62126,21.06,74376.0,16.65,8.97,8.19,0,*4E
1502110831.83,62127,21.06,74378.0,16.67,8.97,8.13,0,*47
1502110833.09,62128,21.06,74376.5,16.71,8.13,7.27,0,*4B
1502110834.35,62129,21.06,74376.5,16.71,7.95,7.23,0,*4F
1502110835.58,62130,21.06,74376.5,16.69,8.13,7.47,0,*4D
1502110836.81,62131,21.06,74376.5,16.69,7.77,7.15,0,*46
1502110838.01,62132,21.06,74378.8,16.69,7.77,7.01,0,*40
1502110839.22,62133,21.06,74378.3,16.69,7.59,6.91,0,*45
1502110840.48,62134,21.06,74376.3,16.71,7.77,7.15,0,*4A
1502110841.71,62135,21.06,74378.8,16.71,8.45,7.77,0,*41
1502110842.94,62136,21.06,74376.8,16.75,7.83,7.05,0,*46
1502110844.13,62137,21.06,74378.8,16.73,8.15,7.51,0,*40
1502110845.33,62138,21.06,74376.0,16.73,8.75,8.19,0,*4A
1502110846.54,62139,21.06,74378.5,16.73,7.51,6.91,0,*4C
1502110847.79,62140,21.06,74378.0,16.75,7.19,6.57,0,*42
1502110848.99,62141,21.06,74374.8,16.75,7.37,6.83,0,*46
1502110850.17,62142,21.06,74378.5,16.73,7.59,7.01,0,*40
1502110851.35,62143,21.06,74378.8,16.73,7.51,6.93,0,*43
1502110852.58,62144,21.06,74380.0,16.75,7.47,6.83,0,*44
1502110853.8,62145,21.06,74378.3,16.73,7.19,6.61,0,*44
1502110855.04,62146,21.06,74376.5,16.75,7.09,6.51,0,*43
1502110856.27,62147,21.06,74376.5,16.75,6.61,6.11,0,*49
1502110857.49,62148,21.06,74376.5,16.73,5.89,5.23,0,*47
1502110858.73,62149,21.06,74378.0,16.71,5.05,4.45,0,*41
1502110859.91,62150,21.06,74376.3,16.69,5.41,4.85,0,*4C
1502110861.12,62151,21.06,74376.0,16.69,5.85,5.19,0,*41
1502110862.37,62152,21.06,74376.3,16.67,6.33,5.73,0,*4E
1502110863.6,62153,21.06,74376.5,16.65,6.57,5.93,0,*41
1502110864.83,62154,21.06,74378.3,16.65,6.57,5.93,0,*46
1502110866.04,62155,21.06,74376.5,16.65,6.73,6.25,0,*4F
1502110867.25,62156,21.06,74376.5,16.65,7.47,6.93,0,*47
1502110868.47,62157,21.06,74378.8,16.65,7.19,6.61,0,*40
1502110869.71,62158,21.06,74376.0,16.65,6.51,5.89,0,*47
1502110870.93,62159,21.06,74376.8,16.65,6.97,6.51,0,*4A
1502110872.19,62160,21.06,74378.3,16.67,7.77,7.15,0,*4C
1502110873.39,62161,21.06,74378.0,16.65,7.61,7.05,0,*49
1502110874.6,62162,21.06,74376.8,16.67,7.41,6.93,0,*44
1502110875.8,62163,21.06,74374.3,16.65,7.61,6.79,0,*41
1502110877.03,62164,21.06,74380.5,16.65,7.15,6.61,0,*4C
1502110878.24,62165,21.06,74378.3,16.67,7.97,7.51,0,*47
1502110879.47,62166,21.06,74374.3,16.67,7.91,7.33,0,*46
1502110880.73,62167,21.06,74376.3,16.67,7.19,6.61,0,*41
1502110881.96,62168,21.06,74378.0,16.67,7.45,6.87,0,*4F
1502110883.19,62169,21.06,74376.5,16.69,7.83,7.15,0,*40
1502110884.42,62170,21.06,74374.3,16.71,7.95,7.33,0,*42
1502110885.65,62171,21.06,74374.8,16.71,7.79,7.23,0,*40
1502110886.9,62172,21.06,74376.0,16.71,7.83,7.23,0,*46
1502110888.13,62173,21.06,74374.8,16.71,8.01,7.27,0,*46
1502110889.34,62174,21.06,74378.0,16.69,7.77,7.05,0,*46
1502110890.53,62175,21.06,74374.8,16.73,7.41,6.73,0,*49
1502110891.72,62176,21.06,74378.8,16.73,7.79,7.09,0,*4D
1502110892.95,62177,21.06,74380.0,16.73,8.47,7.83,0,*4C
1502110894.12,62178,21.06,74378.3,16.73,7.59,6.83,0,*42
1502110895.33,62179,21.06,74378.3,16.75,6.83,6.25,0,*4F
1502110896.56,62180,21.06,74376.3,16.73,7.27,6.61,0,*40
1502110897.74,62181,21.06,74378.0,16.73,7.59,7.01,0,*4F
1502110898.94,62182,21.06,74378.3,16.73,7.69,7.09,0,*47
1502110900.2,62183,21.06,74376.0,16.75,7.87,7.27,0,*4C
1502110901.43,62184,21.06,74378.8,16.75,7.05,6.39,0,*4F
1502110902.65,62185,21.06,74374.8,16.75,7.37,6.73,0,*41
1502110903.89,62186,21.06,74378.8,16.75,7.79,7.19,0,*45
1502110905.09,62187,21.06,74374.0,16.77,7.97,7.33,0,*4E
1502110906.32,62188,21.06,74376.3,16.77,7.91,7.29,0,*4C
1502110907.53,62189,21.06,74378.8,16.77,7.97,7.29,0,*4B
1502110908.77,62190,21.06,74376.8,16.81,7.95,7.37,0,*47
1502110909.98,62191,21.06,74374.8,16.81,8.45,7.79,0,*4E
1502110911.19,62192,21.06,74378.0,16.83,8.71,8.15,0,*4D
1502110912.43,62193,21.06,74374.5,16.83,8.59,7.95,0,*41
1502110913.67,62194,21.06,74372.3,16.83,8.37,7.73,0,*46
1502110914.88,62195,21.06,74374.3,16.87,8.61,7.95,0,*48
1502110916.11,62196,21.06,74374.0,16.87,7.87,7.15,0,*44
1502110917.37,62197,21.06,74376.5,16.89,7.61,6.87,0,*49
1502110918.59,62198,21.06,74376.0,16.89,7.55,6.97,0,*40
1502110919.86,62199,21.06,74374.8,16.89,8.41,7.77,0,*44
1502110921.09,62200,21.06,74372.5,16.91,8.55,7.91,0,*43
1502110922.33,62201,21.06,74376.8,16.91,8.59,7.91,0,*4E
1502110923.56,62202,21.06,74374.8,16.93,8.71,8.05,0,*47
1502110924.79,62203,21.06,74374.5,16.91,8.47,7.65,0,*48
1502110926.01,62204,21.13,74378.3,16.93,8.87,8.15,0,*49
1502110927.24,62205,21.06,74376.5,16.93,9.07,8.29,0,*4E
1502110928.43,62206,21.06,74374.0,16.99,9.03,8.23,0,*49
1502110929.65,62207,21.06,74378.3,16.97,8.65,7.83,0,*42
1502110930.83,62208,21.06,74372.5,16.99,8.45,7.59,0,*46
1502110932.03,62209,21.06,74374.0,17.01,8.61,7.79,0,*43
1502110933.24,62210,21.13,74378.5,17.01,8.27,7.37,0,*43
1502110934.47,62211,21.06,74378.3,17.01,8.97,8.15,0,*46
1502110935.7,62212,21.06,74372.3,17.01,8.19,7.27,0,*4D
1502110936.93,62213,21.06,74378.3,17.05,8.37,7.51,0,*45
1502110938.15,62214,21.06,74374.0,17.05,7.51,6.69,0,*47
1502110939.35,62215,21.06,74374.0,17.07,7.87,7.05,0,*44
1502110940.58,62216,21.06,74376.0,17.07,7.15,6.35,0,*4E
1502110941.78,62217,21.06,74376.5,17.05,7.79,7.01,0,*41
1502110943.01,62218,21.06,74376.3,17.07,7.95,7.27,0,*4A
1502110944.19,62219,21.13,74376.8,17.07,8.15,7.45,0,*48
1502110945.37,62220,21.06,74378.5,17.07,8.05,7.29,0,*49
1502110946.58,62221,21.06,74378.3,17.09,7.69,6.97,0,*47
1502110947.79,62222,21.06,74378.5,17.11,7.97,7.29,0,*48
1502110949.02,62223,21.06,74372.3,17.11,8.89,8.23,0,*4C
1502110950.29,62224,21.06,74374.0,17.11,8.47,7.69,0,*48
1502110951.52,62225,21.06,74376.3,17.13,7.23,6.53,0,*4E
1502110952.75,62226,21.06,74378.8,17.11,7.09,6.43,0,*46
1502110953.99,62227,21.06,74376.8,17.11,8.13,7.45,0,*44
1502110955.18,62228,21.06,74374.3,17.13,8.15,7.59,0,*42
1502110956.41,62229,21.06,74378.0,17.13,8.29,7.69,0,*4F
1502110957.62,62230,21.06,74372.3,17.15,8.61,8.05,0,*48
1502110958.88,62231,21.06,74378.0,17.15,8.51,7.87,0,*4F
1502110960.1,62232,21.06,74376.5,17.17,8.51,7.87,0,*4E
1502110961.3,62233,21.06,74378.5,17.17,8.51,7.97,0,*4E
1502110962.53,62234,21.06,74374.5,17.17,8.33,7.77,0,*43
1502110963.73,62235,21.13,74376.3,17.19,8.01,7.55,0,*4D
1502110964.97,62236,21.13,74378.0,17.19,7.79,7.19,0,*46
1502110966.18,62237,21.06,74372.8,17.21,8.27,7.69,0,*4F
1502110967.42,62238,21.06,74378.0,17.21,8.37,7.73,0,*4A
1502110968.64,62239,21.06,74374.8,17.23,8.79,8.27,0,*4D
1502110969.89,62240,21.06,74376.5,17.23,8.93,8.41,0,*47
1502110971.12,62241,21.06,74378.0,17.23,8.71,8.23,0,*4E
1502110972.34,62242,21.13,74376.0,17.29,9.01,8.45,0,*41
1502110973.57,62243,21.06,74376.5,17.29,9.11,8.55,0,*40
1502110974.8,62244,21.13,74378.5,17.31,8.75,8.23,0,*4C
1502110976.06,62245,21.13,74378.0,17.35,8.71,8.33,0,*4C
1502110977.29,62246,21.13,74376.3,17.33,8.89,8.37,0,*4A
1502110978.53,62247,21.06,74378.0,17.37,8.55,7.87,0,*4A
1502110979.76,62248,21.13,74376.5,17.35,8.71,8.15,0,*45
1502110980.96,62249,21.06,74374.0,17.37,8.75,8.23,0,*47
1502110982.2,62250,21.13,74376.5,17.35,7.83,7.29,0,*4E
1502110983.44,62251,21.13,74378.3,17.39,8.19,7.61,0,*43
1502110984.69,62252,21.06,74376.3,17.39,8.51,7.87,0,*44
1502110985.9,62253,21.06,74376.0,17.41,8.69,7.95,0,*42
1502110987.14,62254,21.13,74376.0,17.41,8.55,7.91,0,*4E
1502110988.37,62255,21.06,74374.5,17.41,8.47,7.83,0,*4F
1502110989.63,62256,21.13,74378.3,17.43,8.55,7.91,0,*4E
1502110990.84,62257,21.13,74378.0,17.45,8.71,8.09,0,*41
1502110992.02,62258,21.06,74374.5,17.45,8.65,7.97,0,*43
1502110993.25,62259,21.13,74378.8,17.45,8.93,8.37,0,*4E
1502110994.46,62260,21.06,74374.3,17.51,8.79,8.15,0,*45
1502110995.67,62261,21.13,74378.3,17.51,8.79,8.05,0,*45
1502110996.88,62262,21.06,74376.3,17.51,9.03,8.45,0,*4E
1502110998.1,62263,21.06,74374.0,17.53,9.25,8.55,0,*48
1502110999.33,62264,21.13,74380.8,17.55,9.25,8.59,0,*45
1502111000.57,62265,21.06,74372.5,17.57,8.55,7.83,0,*48
1502111001.81,62266,21.06,74376.3,17.59,8.87,8.13,0,*4C
1502111003.04,62267,21.13,74376.3,17.59,8.13,7.41,0,*48
1502111004.27,62268,21.06,74374.8,17.59,7.77,7.09,0,*46
1502111005.47,62269,21.13,74376.8,17.59,8.09,7.45,0,*49
1502111006.7,62270,21.13,74378.0,17.59,8.71,8.09,0,*49
1502111007.91,62271,21.13,74378.0,17.63,8.69,8.01,0,*40
1502111009.12,62272,21.13,74378.0,17.65,8.71,8.15,0,*49
1502111010.31,62273,21.13,74376.5,17.65,8.87,8.27,0,*40
1502111011.54,62274,21.06,74376.0,17.67,9.19,8.65,0,*45
1502111012.76,62275,21.13,74378.5,17.67,9.29,8.75,0,*46
1502111013.99,62276,21.06,74372.8,17.69,8.89,8.37,0,*46
1502111015.23,62277,21.06,74372.3,17.73,9.25,8.75,0,*4D
1502111016.47,62278,21.06,74372.3,17.73,9.03,8.59,0,*48
1502111017.68,62279,21.06,74374.0,17.75,9.35,8.83,0,*4D
1502111018.89,62280,21.13,74374.0,17.75,8.83,8.29,0,*47
1502111020.09,62281,21.13,74374.5,17.77,9.21,8.65,0,*45
1502111021.3,62282,21.13,74376.3,17.81,8.79,8.23,0,*41
1502111022.54,62283,21.13,74374.5,17.81,8.87,8.33,0,*40
1502111023.75,62284,21.06,74372.8,17.79,8.19,7.65,0,*4B
1502111024.98,62285,21.13,74376.0,17.81,7.69,7.09,0,*4F
1502111026.21,62286,21.06,74374.0,17.79,7.83,7.19,0,*4E
1502111027.42,62287,21.13,74378.0,17.81,7.97,7.51,0,*41
1502111028.65,62288,21.13,74372.8,17.79,8.29,7.73,0,*43
1502111029.89,62289,21.13,74376.3,17.81,7.51,6.91,0,*48
1502111031.09,62290,21.13,74376.5,17.79,7.37,6.87,0,*40
1502111032.33,62291,21.06,74372.8,17.79,6.73,6.17,0,*49
1502111033.57,62292,21.13,74378.0,17.79,6.51,5.89,0,*4E
1502111034.83,62293,21.06,74370.3,17.77,6.73,6.13,0,*41
1502111036.05,62294,21.06,74374.3,17.75,6.57,5.95,0,*4F
1502111037.25,62295,21.13,74376.3,17.75,6.75,6.13,0,*43
1502111038.51,62296,21.06,74374.5,17.73,6.87,6.17,0,*4F
1502111039.74,62297,21.06,74372.5,17.69,6.53,5.93,0,*43
1502111040.98,62298,21.06,74372.8,17.65,6.35,5.73,0,*4E
1502111042.2,62299,21.06,74374.0,17.67,6.25,5.67,0,*49
1502111043.43,62300,21.13,74378.0,17.65,6.73,6.13,0,*49
1502111044.67,62301,21.13,74378.3,17.63,6.73,6.03,0,*4F
1502111045.9,62302,21.06,74374.8,17.61,7.19,6.65,0,*43
1502111047.09,62303,21.13,74372.5,17.61,7.01,6.33,0,*48
1502111048.28,62304,21.06,74374.0,17.61,6.79,6.11,0,*41
1502111049.46,62305,21.13,74378.0,17.57,7.05,6.25,0,*48
1502111050.7,62306,21.13,74376.0,17.59,6.39,5.67,0,*4E
1502111051.91,62307,21.06,74374.0,17.57,7.09,6.35,0,*47
1502111053.13,62308,21.13,74378.5,17.57,6.29,5.55,0,*4E
1502111054.37,62309,21.13,74376.0,17.55,6.47,5.63,0,*40
1502111055.58,62310,21.06,74372.8,17.53,6.69,5.99,0,*47
1502111056.78,62311,21.13,74374.8,17.53,7.47,6.79,0,*46
1502111058.01,62312,21.13,74376.3,17.53,7.87,7.19,0,*4E
1502111059.25,62313,21.13,74374.0,17.55,7.79,7.15,0,*44
1502111060.45,62314,21.13,74378.0,17.55,8.61,7.97,0,*4F
1502111061.69,62315,21.13,74378.0,17.53,8.71,7.95,0,*4B
1502111062.93,62316,21.06,74372.8,17.55,8.15,7.47,0,*43
1502111064.13,62317,21.06,74372.8,17.57,8.33,7.55,0,*47
1502111065.34,62318,21.13,74376.8,17.57,7.73,6.97,0,*4C
1502111066.53,62319,21.13,74376.3,17.57,8.23,7.51,0,*4C
1502111067.79,62320,21.13,74376.5,17.59,8.51,7.77,0,*49
1502111069.0,62321,21.06,74374.0,17.57,7.87,7.09,0,*4B
1502111070.25,62322,21.13,74378.8,17.59,8.51,7.73,0,*4F
1502111071.51,62323,21.06,74374.3,17.59,8.75,7.95,0,*40
1502111072.72,62324,21.13,74378.3,17.59,8.09,7.41,0,*45
1502111073.94,62325,21.13,74372.8,17.59,7.41,6.61,0,*44
1502111075.17,62326,21.13,74378.0,17.59,7.33,6.51,0,*41
1502111076.4,62327,21.13,74376.8,17.59,7.77,7.09,0,*4C
1502111077.61,62328,21.06,74374.0,17.59,8.23,7.51,0,*40
1502111078.82,62329,21.06,74374.3,17.61,8.59,7.97,0,*4D
1502111080.06,62330,21.13,74374.3,17.61,8.37,7.69,0,*4C
1502111081.27,62331,21.13,74378.5,17.63,8.05,7.37,0,*45
1502111082.48,62332,21.13,74378.5,17.63,8.61,8.01,0,*4E
1502111083.69,62333,21.13,74376.8,17.63,8.87,8.19,0,*4E
1502111084.9,62334,21.13,74378.0,17.67,8.83,8.19,0,*49
1502111086.13,62335,21.13,74378.5,17.65,8.47,7.83,0,*4E
1502111087.34,62336,21.13,74376.3,17.67,8.83,8.19,0,*4B
1502111088.6,62337,21.06,74374.8,17.73,9.01,8.33,0,*4C
1502111089.83,62338,21.13,74376.8,17.69,8.47,7.87,0,*4B
1502111091.07,62339,21.13,74376.3,17.73,8.23,7.47,0,*4F
1502111092.3,62340,21.13,74378.5,17.73,7.45,6.65,0,*4F
1502111093.49,62341,21.13,74376.3,17.69,7.69,7.01,0,*48
1502111094.71,62342,21.13,74376.5,17.73,7.09,6.29,0,*4D
1502111095.91,62343,21.13,74378.5,17.69,6.87,6.21,0,*48
1502111097.14,62344,21.13,74374.5,17.73,7.69,7.01,0,*46
1502111098.38,62345,21.13,74378.5,17.73,7.79,7.19,0,*4F
1502111099.62,62346,21.13,74378.0,17.73,8.15,7.47,0,*42
1502111100.83,62347,21.13,74376.0,17.73,8.15,7.55,0,*40
1502111102.09,62348,21.13,74378.0,17.73,8.13,7.47,0,*4A
1502111103.32,62349,21.13,74376.3,17.75,7.91,7.27,0,*4E
1502111104.56,62350,21.13,74378.0,17.75,7.83,7.27,0,*45
1502111105.77,62351,21.13,74376.5,17.75,7.95,7.37,0,*42
1502111106.97,62352,21.13,74378.8,17.75,7.47,6.79,0,*45
1502111108.21,62353,21.13,74374.3,17.75,7.77,7.23,0,*49
1502111109.44,62354,21.13,74378.0,17.77,7.87,7.29,0,*49
1502111110.7,62355,21.06,74372.0,17.77,8.33,7.65,0,*40
1502111111.97,62356,21.13,74376.0,17.77,8.55,7.95,0,*4C
1502111113.19,62357,21.13,74378.3,17.79,8.23,7.65,0,*4D
1502111114.37,62358,21.13,74378.5,17.79,7.97,7.29,0,*4A
1502111115.6,62359,21.13,74378.5,17.81,7.29,6.53,0,*45
1502111116.81,62360,21.13,74378.3,17.79,6.83,6.17,0,*49
1502111118.05,62361,21.13,74376.0,17.77,6.61,5.99,0,*4F
1502111119.3,62362,21.13,74376.8,17.77,5.93,5.33,0,*42
1502111120.49,62363,21.13,74376.3,17.75,6.03,5.45,0,*4A
1502111121.67,62364,21.13,74376.8,17.75,6.75,6.11,0,*4E
1502111122.9,62365,21.13,74374.8,17.75,7.11,6.53,0,*4A
1502111124.12,62366,21.13,74376.0,17.73,6.21,5.59,0,*44
1502111125.31,62367,21.13,74378.3,17.75,6.83,6.33,0,*44
1502111126.51,62368,21.13,74378.3,17.75,7.37,6.69,0,*4A
1502111127.72,62369,21.13,74376.5,17.73,7.59,7.09,0,*42
1502111128.92,62370,21.13,74372.3,17.73,7.79,7.33,0,*41
1502111130.15,62371,21.13,74376.3,17.73,7.87,7.33,0,*41
1502111131.41,62372,21.13,74374.5,17.73,7.65,7.11,0,*4E
1502111132.65,62373,21.13,74378.8,17.73,7.79,7.23,0,*43
1502111133.82,62374,21.13,74374.5,17.75,7.37,6.79,0,*46
1502111135.01,62375,21.13,74374.8,17.75,7.59,6.93,0,*4B
1502111136.22,62376,21.13,74376.3,17.75,7.79,7.27,0,*44
1502111137.44,62377,21.13,74378.5,17.75,8.19,7.61,0,*4E
1502111138.63,62378,21.13,74372.8,17.75,8.15,7.51,0,*4E
1502111139.86,62379,21.13,74372.3,17.77,7.65,6.93,0,*4A
1502111141.07,62380,21.13,74376.0,17.75,6.83,6.13,0,*4F
1502111142.26,62381,21.13,74376.3,17.75,6.25,5.41,0,*46
1502111143.49,62382,21.13,74378.3,17.73,5.85,5.15,0,*4B
1502111144.73,62383,21.13,74376.3,17.69,5.73,5.01,0,*4D
1502111145.95,62384,21.13,74378.0,17.65,6.33,5.51,0,*44
1502111147.19,62385,21.13,74376.5,17.65,6.35,5.55,0,*47
1502111148.45,62386,21.13,74378.3,17.63,5.51,4.75,0,*40
1502111149.64,62387,21.13,74376.8,17.61,6.11,5.37,0,*43
1502111150.83,62388,21.13,74378.8,17.61,7.09,6.33,0,*43
1502111152.01,62389,21.13,74374.0,17.61,7.45,6.75,0,*48
1502111153.22,62390,21.13,74376.8,17.59,7.51,6.75,0,*4E
1502111154.43,62391,21.13,74378.0,17.59,6.75,6.03,0,*49
1502111155.64,62392,21.13,74374.5,17.59,6.97,6.25,0,*42
1502111156.87,62393,21.13,74376.5,17.59,7.09,6.39,0,*48
1502111158.06,62394,21.13,74376.3,17.61,7.59,6.97,0,*45
1502111159.25,62395,21.13,74376.3,17.61,8.15,7.59,0,*40
1502111160.43,62396,21.13,74378.0,17.61,7.97,7.37,0,*4E
1502111161.66,62397,21.13,74378.3,17.63,7.91,7.33,0,*4F
1502111162.88,62398,21.13,74378.0,17.63,8.19,7.59,0,*43
1502111164.13,62399,21.13,74376.3,17.63,8.41,7.83,0,*48
1502111165.36,62400,21.13,74376.5,17.67,8.45,7.95,0,*48
1502111166.59,62401,21.13,74378.0,17.69,8.47,7.91,0,*41
1502111167.83,62402,21.13,74378.8,17.69,8.59,8.13,0,*48
1502111169.03,62403,21.13,74378.5,17.69,8.59,8.15,0,*4F
1502111170.24,62404,21.13,74372.8,17.73,8.69,8.23,0,*45
1502111171.45,62405,21.13,74376.5,17.75,8.61,8.13,0,*49
1502111172.65,62406,21.13,74376.8,17.75,8.75,8.23,0,*4C
1502111173.89,62407,21.13,74374.8,17.77,8.71,8.19,0,*42
1502111175.13,62408,21.13,74374.3,17.77,8.87,8.29,0,*47
1502111176.34,62409,21.13,74372.0,17.79,7.87,7.29,0,*48
1502111177.54,62410,21.13,74376.8,17.81,7.97,7.45,0,*4C
1502111178.77,62411,21.13,74380.0,17.81,8.45,7.87,0,*43
1502111179.98,62412,21.13,74378.3,17.81,8.23,7.55,0,*4F
1502111181.22,62413,21.13,74376.3,17.81,8.27,7.65,0,*49
1502111182.45,62414,21.13,74378.3,17.83,8.33,7.69,0,*45
1502111183.62,62415,21.13,74378.0,17.83,7.01,6.33,0,*44
1502111184.88,62416,21.13,74374.0,17.85,6.69,5.89,0,*4C
1502111186.06,62417,21.13,74376.0,17.79,6.83,6.25,0,*4F
1502111187.25,62418,21.13,74378.0,17.79,7.05,6.29,0,*43
1502111188.5,62419,21.13,74378.5,17.81,7.11,6.39,0,*41
1502111189.73,62420,21.13,74378.3,17.79,7.15,6.39,0,*48
1502111190.96,62421,21.13,74378.0,17.79,7.83,7.19,0,*45
1502111192.16,62422,21.13,74378.8,17.81,8.01,7.33,0,*4C
1502111193.41,62423,21.13,74376.5,17.79,8.41,7.73,0,*4A
1502111194.62,62424,21.13,74376.3,17.79,7.95,7.41,0,*4A
1502111195.84,62425,21.13,74376.3,17.81,8.45,7.87,0,*44
1502111197.1,62426,21.13,74376.0,17.81,8.55,7.91,0,*41
1502111198.28,62427,21.13,74376.0,17.83,8.01,7.37,0,*4F
1502111199.48,62428,21.13,74378.8,17.83,7.47,6.79,0,*46
1502111200.65,62429,21.13,74382.5,17.83,7.59,7.01,0,*46
1502111201.88,62430,21.13,74376.3,17.83,7.91,7.15,0,*4F
1502111203.08,62431,21.13,74376.8,17.85,7.41,6.93,0,*4A
1502111204.29,62432,21.13,74378.3,17.83,7.55,6.91,0,*48
1502111205.49,62433,21.13,74376.5,17.85,7.97,7.41,0,*4D
1502111206.7,62434,21.13,74378.3,17.85,7.05,6.29,0,*4E
1502111207.93,62435,21.13,74376.5,17.85,7.29,6.61,0,*4D
1502111209.19,62436,21.13,74378.3,17.85,8.41,7.65,0,*4A
1502111210.39,62437,21.13,74378.5,17.83,8.51,7.79,0,*41
1502111211.6,62438,21.13,74376.8,17.87,8.05,7.27,0,*40
1502111212.8,62439,21.13,74378.0,17.87,7.77,7.09,0,*47
1502111214.03,62440,21.13,74378.5,17.87,7.47,6.69,0,*4D
1502111215.21,62441,21.13,74376.3,17.87,7.51,6.83,0,*4F
1502111216.44,62442,21.13,74376.0,17.87,7.83,7.15,0,*4D
1502111217.68,62443,21.13,74380.3,17.87,8.41,7.77,0,*49
1502111218.91,62444,21.13,74376.3,17.87,7.87,7.27,0,*4E
1502111220.15,62445,21.13,74378.5,17.87,8.41,7.77,0,*4F
1502111221.41,62446,21.13,74376.8,17.89,8.55,7.91,0,*4F
1502111222.64,62447,21.13,74380.8,17.91,8.75,8.13,0,*40
1502111223.85,62448,21.13,74380.3,17.95,8.71,8.05,0,*48
1502111225.08,62449,21.13,74376.0,17.95,8.47,7.91,0,*4E
1502111226.26,62450,21.13,74378.3,17.95,8.83,8.23,0,*48
1502111227.44,62451,21.13,74376.5,17.95,8.69,8.05,0,*49
1502111228.65,62452,21.13,74376.8,17.97,8.87,8.27,0,*48
1502111229.91,62453,21.13,74376.0,17.97,8.29,7.69,0,*48
1502111231.13,62454,21.13,74378.5,17.99,8.29,7.65,0,*4D
1502111232.33,62455,21.13,74378.0,17.99,7.91,7.33,0,*43
1502111233.56,62456,21.13,74376.3,17.99,8.41,7.87,0,*4D
1502111234.76,62457,21.13,74380.5,17.99,8.33,7.79,0,*48
1502111235.99,62458,21.13,74376.3,18.01,8.45,7.87,0,*49
1502111237.22,62459,21.13,74376.8,18.03,8.59,7.95,0,*44
1502111238.45,62460,21.13,74378.3,18.03,7.77,7.11,0,*41
1502111239.66,62461,21.13,74380.0,18.01,7.97,7.29,0,*47
1502111240.84,62462,21.13,74378.0,18.03,7.55,6.79,0,*4C
1502111242.07,62463,21.13,74378.0,18.01,7.29,6.61,0,*4D
1502111243.3,62464,21.13,74382.3,18.01,7.29,6.51,0,*49
1502111244.56,62465,21.13,74380.0,18.01,7.11,6.51,0,*43
1502111245.76,62466,21.13,74376.5,17.99,8.13,7.55,0,*46
1502111246.96,62467,21.13,74378.8,17.99,8.13,7.41,0,*42
1502111248.14,62468,21.13,74378.8,17.99,7.97,7.29,0,*40
1502111249.37,62469,21.13,74376.5,17.99,8.41,7.65,0,*4D
1502111250.6,62470,21.13,74376.3,18.01,7.73,7.09,0,*4F
1502111251.85,62471,21.13,74378.0,18.01,7.61,6.87,0,*4A
1502111253.09,62472,21.13,74376.0,18.01,7.61,6.97,0,*48
1502111254.29,62473,21.13,74380.0,18.01,8.65,7.97,0,*43
1502111255.52,62474,21.13,74378.0,18.01,8.45,7.77,0,*48
1502111256.69,62475,21.13,74376.3,18.03,7.79,7.01,0,*4A
1502111257.93,62476,21.13,74376.0,18.03,7.23,6.43,0,*41
1502111259.18,62477,21.13,74374.5,18.01,7.19,6.43,0,*4B
1502111260.39,62478,21.13,74376.8,18.01,7.55,6.75,0,*49
1502111261.59,62479,21.13,74378.5,17.97,8.09,7.41,0,*48
1502111262.82,62480,21.13,74378.5,17.99,8.33,7.65,0,*4F
1502111264.04,62481,21.13,74376.5,18.01,7.97,7.23,0,*43
1502111265.24,62482,21.13,74378.5,18.01,7.79,7.09,0,*48
1502111266.45,62483,21.13,74380.0,18.03,8.47,7.79,0,*4E
1502111267.66,62484,21.13,74378.8,18.01,8.87,8.19,0,*4E
1502111268.87,62485,21.13,74376.0,18.03,8.89,8.15,0,*4F
1502111270.06,62486,21.13,74378.3,18.05,8.87,8.19,0,*48
1502111271.25,62487,21.13,74376.8,18.05,8.87,8.09,0,*48
1502111272.47,62488,21.13,74378.0,18.07,8.83,8.19,0,*40
1502111273.69,62489,21.13,74378.3,18.07,8.87,8.27,0,*48
1502111274.9,62490,21.13,74382.3,18.07,8.87,8.15,0,*41
1502111276.14,62491,21.13,74376.5,18.11,9.03,8.47,0,*4D
1502111277.4,62492,21.13,74376.3,18.11,9.15,8.47,0,*49
1502111278.63,62493,21.13,74376.0,18.13,8.55,7.91,0,*4B
1502111279.82,62494,21.13,74380.8,18.13,8.69,8.01,0,*45
1502111281.03,62495,21.13,74380.3,18.13,8.47,7.79,0,*48
1502111282.26,62496,21.13,74376.5,18.19,8.75,8.01,0,*40
1502111283.5,62497,21.13,74380.0,18.17,8.93,8.29,0,*4D
1502111284.72,62498,21.13,74380.3,18.17,8.59,7.79,0,*4E
1502111285.92,62499,21.13,74376.8,18.17,7.51,6.69,0,*48
1502111287.12,62500,21.13,74376.8,18.17,7.37,6.57,0,*44
1502111288.36,62501,21.13,74380.0,18.17,7.27,6.43,0,*41
1502111289.57,62502,21.13,74378.0,18.13,6.91,6.07,0,*4A
1502111290.78,62503,21.13,74380.8,18.13,7.11,6.33,0,*45
1502111292.01,62504,21.13,74378.5,18.11,7.45,6.65,0,*42
1502111293.22,62505,21.13,74380.0,18.09,7.61,6.83,0,*44
1502111294.45,62506,21.13,74378.0,18.11,7.59,6.87,0,*41
1502111295.72,62507,21.13,74382.8,18.11,8.55,7.77,0,*4D
1502111296.95,62508,21.13,74376.0,18.11,8.71,8.01,0,*4A
1502111298.2,62509,21.13,74382.0,18.11,9.01,8.27,0,*49
1502111299.41,62510,21.13,74380.3,18.17,8.71,7.97,0,*45
1502111300.62,62511,21.13,74378.5,18.13,8.79,8.13,0,*4B
1502111301.83,62512,21.13,74380.3,18.17,9.07,8.29,0,*4D
1502111303.05,62513,21.13,74376.8,18.19,8.79,8.01,0,*40
1502111304.29,62514,21.13,74376.8,18.19,8.33,7.51,0,*43
1502111305.52,62515,21.13,74378.8,18.19,7.51,6.65,0,*4F
1502111306.73,62516,21.13,74380.3,18.19,8.19,7.33,0,*4D
1502111307.94,62517,21.13,74380.3,18.21,8.75,7.97,0,*43
1502111309.15,62518,21.13,74382.3,18.23,8.79,8.01,0,*42
1502111310.36,62519,21.13,74380.0,18.23,8.83,8.01,0,*46
1502111311.57,62520,21.13,74376.0,18.25,8.93,8.09,0,*43
1502111312.81,62521,21.13,74380.8,18.23,8.93,8.15,0,*49
1502111314.02,62522,21.13,74378.8,18.25,8.61,7.69,0,*45
1502111315.23,62523,21.13,74380.3,18.25,7.95,7.05,0,*4A
1502111316.43,62524,21.13,74378.5,18.25,7.83,6.93,0,*44
1502111317.64,62525,21.13,74376.5,18.25,7.59,6.73,0,*4C
1502111318.88,62526,21.13,74378.0,18.25,7.15,6.35,0,*45
1502111320.1,62527,21.13,74380.0,18.25,7.23,6.33,0,*47
1502111321.31,62528,21.13,74378.0,18.25,7.33,6.35,0,*4F
1502111322.57,62529,21.13,74382.3,18.23,7.23,6.39,0,*45
1502111323.79,62530,21.13,74382.5,18.23,7.33,6.43,0,*41